SKW6208 KLAX-KAUS

Flight info

Callsign SKW6208
Flight time 2h 30m
Altitude 33000
Route DOTSS2 CNERY BLH SPTFR SSO/N0420F350 PEQ Q4 FUSCO DILLO LAIKS4
Aircraft E75L/M-SDE3GILORVW/S

Departure

Time 2026-05-07 00:32
Airport Los Angeles International Airport (KLAX)

Arrival

Time 2026-05-07 03:02
Airport Austin Bergstrom International Airport (KAUS)
Time Latitude Longitude Altitude Speed Heading
2026-05-07 00:05 33.94133 -118.40384 91 ft 0 kts 268°
2026-05-07 00:20 33.94132 -118.40363 91 ft 4 kts 283°
2026-05-07 00:20 33.94122 -118.40334 92 ft 4 kts 288°
2026-05-07 00:20 33.94113 -118.40325 91 ft 3 kts 177°
2026-05-07 00:20 33.94098 -118.40324 92 ft 4 kts 174°
2026-05-07 00:21 33.94071 -118.40320 91 ft 4 kts 172°
2026-05-07 00:21 33.94057 -118.40317 91 ft 0 kts 172°
2026-05-07 00:25 33.94052 -118.40316 92 ft 2 kts 171°
2026-05-07 00:25 33.94031 -118.40312 91 ft 5 kts 171°
2026-05-07 00:25 33.93995 -118.40306 91 ft 6 kts 171°
2026-05-07 00:25 33.93955 -118.40294 91 ft 6 kts 152°
2026-05-07 00:26 33.93938 -118.40251 91 ft 7 kts 89°
2026-05-07 00:26 33.93943 -118.40189 92 ft 8 kts 83°
2026-05-07 00:26 33.93951 -118.40115 92 ft 10 kts 83°
2026-05-07 00:26 33.93960 -118.40029 92 ft 11 kts 84°
2026-05-07 00:27 33.93968 -118.39930 92 ft 13 kts 84°
2026-05-07 00:27 33.93978 -118.39814 91 ft 16 kts 83°
2026-05-07 00:27 33.93993 -118.39677 91 ft 18 kts 83°
2026-05-07 00:27 33.94010 -118.39519 91 ft 20 kts 82°
2026-05-07 00:28 33.94028 -118.39341 91 ft 20 kts 84°
2026-05-07 00:28 33.93999 -118.39231 91 ft 12 kts 145°
2026-05-07 00:28 33.93966 -118.39136 91 ft 14 kts 86°
2026-05-07 00:28 33.93978 -118.39011 92 ft 17 kts 83°
2026-05-07 00:29 33.93994 -118.38857 92 ft 20 kts 82°
2026-05-07 00:29 33.94014 -118.38682 94 ft 22 kts 83°
2026-05-07 00:30 33.94042 -118.38364 94 ft 1 kts 97°
2026-05-07 00:30 33.94051 -118.38291 93 ft 15 kts 80°
2026-05-07 00:30 33.94069 -118.38142 91 ft 20 kts 83°
2026-05-07 00:30 33.94071 -118.38022 91 ft 7 kts 128°
2026-05-07 00:31 33.94015 -118.37998 94 ft 12 kts 190°
2026-05-07 00:31 33.93981 -118.38045 93 ft 1 kts 263°
2026-05-07 00:31 33.93955 -118.38305 96 ft 69 kts 263°
2026-05-07 00:31 33.93865 -118.39177 95 ft 138 kts 263°
2026-05-07 00:32 33.93759 -118.40408 678 ft 157 kts 263°
2026-05-07 00:32 33.93639 -118.41790 1426 ft 170 kts 263°
2026-05-07 00:32 33.93483 -118.43233 2181 ft 180 kts 263°
2026-05-07 00:32 33.93312 -118.44781 2893 ft 192 kts 263°
2026-05-07 00:33 33.93052 -118.46424 3526 ft 209 kts 252°
2026-05-07 00:33 33.92273 -118.47982 4264 ft 228 kts 227°
2026-05-07 00:33 33.90961 -118.49290 4841 ft 257 kts 220°
2026-05-07 00:33 33.89642 -118.50859 5575 ft 276 kts 230°
2026-05-07 00:34 33.88396 -118.52695 6514 ft 286 kts 234°
2026-05-07 00:34 33.87141 -118.54624 7363 ft 297 kts 227°
2026-05-07 00:34 33.85448 -118.56043 8338 ft 302 kts 199°
2026-05-07 00:34 33.83377 -118.56257 9307 ft 300 kts 167°
2026-05-07 00:35 33.81329 -118.55716 10250 ft 304 kts 162°
2026-05-07 00:35 33.79204 -118.55063 10710 ft 325 kts 162°
2026-05-07 00:35 33.76949 -118.54344 11174 ft 345 kts 162°
2026-05-07 00:35 33.74572 -118.53573 11773 ft 359 kts 162°
2026-05-07 00:36 33.72148 -118.52765 12679 ft 363 kts 159°
2026-05-07 00:36 33.69948 -118.51351 13615 ft 359 kts 135°
2026-05-07 00:36 33.68508 -118.48968 14555 ft 352 kts 109°
2026-05-07 00:36 33.67701 -118.46188 15492 ft 355 kts 105°
2026-05-07 00:37 33.66898 -118.43362 16366 ft 361 kts 105°
2026-05-07 00:37 33.66089 -118.40495 17187 ft 364 kts 104°
2026-05-07 00:37 33.65306 -118.37582 17996 ft 369 kts 104°
2026-05-07 00:37 33.64620 -118.34603 18622 ft 373 kts 96°
2026-05-07 00:38 33.64496 -118.31499 19268 ft 373 kts 87°
2026-05-07 00:38 33.64508 -118.28377 19960 ft 376 kts 86°
2026-05-07 00:38 33.64515 -118.25223 20667 ft 380 kts 86°
2026-05-07 00:38 33.64516 -118.22037 21352 ft 384 kts 86°
2026-05-07 00:39 33.64511 -118.18819 22006 ft 387 kts 86°
2026-05-07 00:39 33.64505 -118.15574 22613 ft 391 kts 86°
2026-05-07 00:39 33.64497 -118.12301 23206 ft 394 kts 86°
2026-05-07 00:39 33.64489 -118.09003 23749 ft 397 kts 86°
2026-05-07 00:40 33.64481 -118.05680 24241 ft 400 kts 86°
2026-05-07 00:40 33.64472 -118.02335 24752 ft 402 kts 86°
2026-05-07 00:40 33.64462 -117.98969 25269 ft 404 kts 86°
2026-05-07 00:40 33.64452 -117.95591 25782 ft 406 kts 86°
2026-05-07 00:41 33.64442 -117.92197 26311 ft 408 kts 86°
2026-05-07 00:41 33.64432 -117.88782 26786 ft 410 kts 86°
2026-05-07 00:41 33.64421 -117.85355 27248 ft 412 kts 86°
2026-05-07 00:41 33.64411 -117.81901 27702 ft 414 kts 86°
2026-05-07 00:42 33.64108 -117.78438 28074 ft 424 kts 99°
2026-05-07 00:42 33.63316 -117.75012 28514 ft 428 kts 101°
2026-05-07 00:42 33.62471 -117.71586 28918 ft 430 kts 102°
2026-05-07 00:42 33.61616 -117.68140 29303 ft 432 kts 102°
2026-05-07 00:43 33.60761 -117.64675 29665 ft 434 kts 102°
2026-05-07 00:43 33.59900 -117.61192 30041 ft 436 kts 102°
2026-05-07 00:43 33.59037 -117.57697 30360 ft 438 kts 101°
2026-05-07 00:43 33.58170 -117.54191 30663 ft 440 kts 101°
2026-05-07 00:44 33.57296 -117.50661 30937 ft 442 kts 101°
2026-05-07 00:44 33.56419 -117.47131 31314 ft 441 kts 101°
2026-05-07 00:44 33.55545 -117.43620 31808 ft 438 kts 101°
2026-05-07 00:44 33.54677 -117.40138 32188 ft 436 kts 101°
2026-05-07 00:45 33.53807 -117.36654 32634 ft 434 kts 101°
2026-05-07 00:45 33.52945 -117.33200 33038 ft 430 kts 101°
2026-05-07 00:45 33.51207 -117.26253 33029 ft 438 kts 101°
2026-05-07 00:46 33.50393 -117.19166 33125 ft 429 kts 86°
2026-05-07 00:46 33.50279 -117.12059 33049 ft 425 kts 86°
2026-05-07 00:47 33.50184 -117.04966 33045 ft 426 kts 86°
2026-05-07 00:47 33.50088 -116.97872 33040 ft 425 kts 86°
2026-05-07 00:48 33.49990 -116.90836 33040 ft 426 kts 86°
2026-05-07 00:48 33.49905 -116.84888 33036 ft 427 kts 86°
2026-05-07 00:49 33.49782 -116.76604 33037 ft 427 kts 86°
2026-05-07 00:49 33.49674 -116.69489 33022 ft 427 kts 86°
2026-05-07 00:50 33.49578 -116.63563 33017 ft 428 kts 86°
2026-05-07 00:50 33.49459 -116.56449 33007 ft 425 kts 86°
2026-05-07 00:51 33.49331 -116.49403 32963 ft 421 kts 86°
2026-05-07 00:51 33.49213 -116.42366 32986 ft 423 kts 86°
2026-05-07 00:52 33.49106 -116.35325 32973 ft 424 kts 86°
2026-05-07 00:52 33.49003 -116.28266 32982 ft 424 kts 86°
2026-05-07 00:53 33.48888 -116.21242 32935 ft 417 kts 86°
2026-05-07 00:53 33.48778 -116.14266 32938 ft 419 kts 86°
2026-05-07 00:54 33.48663 -116.07287 32939 ft 419 kts 86°
2026-05-07 00:54 33.49534 -116.00529 32953 ft 409 kts 69°
2026-05-07 00:55 33.51352 -115.94069 32949 ft 408 kts 68°
2026-05-07 00:55 33.53212 -115.87650 32949 ft 408 kts 68°
2026-05-07 00:56 33.55084 -115.81228 32937 ft 408 kts 68°
2026-05-07 00:56 33.56950 -115.74821 32972 ft 408 kts 68°
2026-05-07 00:57 33.58818 -115.68395 32956 ft 408 kts 68°
2026-05-07 00:57 33.60680 -115.61977 32969 ft 409 kts 68°
2026-05-07 00:58 33.61605 -115.55207 32988 ft 420 kts 86°
2026-05-07 00:58 33.61504 -115.48199 32952 ft 420 kts 86°
2026-05-07 00:59 33.61267 -115.37694 32962 ft 420 kts 87°
2026-05-07 01:00 33.61092 -115.30696 32944 ft 419 kts 87°
2026-05-07 01:00 33.60917 -115.23708 32957 ft 419 kts 87°
2026-05-07 01:01 33.60739 -115.16772 32958 ft 419 kts 87°
2026-05-07 01:01 33.60554 -115.09784 32953 ft 419 kts 87°
2026-05-07 01:02 33.60365 -115.02797 32954 ft 419 kts 87°
2026-05-07 01:02 33.60172 -114.95831 32958 ft 416 kts 87°
2026-05-07 01:03 33.59977 -114.88887 32959 ft 417 kts 87°
2026-05-07 01:03 33.59778 -114.81938 32962 ft 417 kts 87°
2026-05-07 01:04 33.59332 -114.74999 32980 ft 423 kts 96°
2026-05-07 01:04 33.58080 -114.68093 32954 ft 424 kts 97°
2026-05-07 01:05 33.56793 -114.61196 32965 ft 424 kts 97°
2026-05-07 01:05 33.55494 -114.54303 32960 ft 424 kts 97°
2026-05-07 01:06 33.54191 -114.47414 32955 ft 424 kts 97°
2026-05-07 01:06 33.52882 -114.40525 32951 ft 424 kts 97°
2026-05-07 01:07 33.51569 -114.33636 32958 ft 424 kts 97°
2026-05-07 01:07 33.50255 -114.26765 32959 ft 424 kts 97°
2026-05-07 01:08 33.48934 -114.19883 32956 ft 423 kts 97°
2026-05-07 01:08 33.47611 -114.13008 32960 ft 423 kts 97°
2026-05-07 01:09 33.46284 -114.06142 32957 ft 424 kts 98°
2026-05-07 01:09 33.44947 -113.99231 32959 ft 426 kts 98°
2026-05-07 01:10 33.43603 -113.92318 32966 ft 426 kts 98°
2026-05-07 01:10 33.42256 -113.85406 32965 ft 426 kts 98°
2026-05-07 01:11 33.40905 -113.78498 32960 ft 425 kts 98°
2026-05-07 01:11 33.39550 -113.71596 32959 ft 428 kts 99°
2026-05-07 01:12 33.37957 -113.64702 32965 ft 435 kts 102°
2026-05-07 01:12 33.36300 -113.57728 32956 ft 436 kts 101°
2026-05-07 01:13 33.34664 -113.50742 32954 ft 436 kts 101°
2026-05-07 01:13 33.33030 -113.43763 32956 ft 436 kts 101°
2026-05-07 01:14 33.31387 -113.36752 32946 ft 439 kts 102°
2026-05-07 01:14 33.29735 -113.29737 32947 ft 438 kts 102°
2026-05-07 01:15 33.28082 -113.22730 32947 ft 438 kts 102°
2026-05-07 01:15 33.26423 -113.15721 32947 ft 438 kts 102°
2026-05-07 01:16 33.24753 -113.08669 32952 ft 445 kts 104°
2026-05-07 01:16 33.23050 -113.01516 32949 ft 449 kts 104°
2026-05-07 01:17 33.21339 -112.94348 32949 ft 449 kts 104°
2026-05-07 01:17 33.19624 -112.87181 32950 ft 449 kts 104°
2026-05-07 01:18 33.17905 -112.80018 32963 ft 449 kts 104°
2026-05-07 01:18 33.16186 -112.72872 32957 ft 454 kts 105°
2026-05-07 01:19 33.14438 -112.65620 32943 ft 455 kts 105°
2026-05-07 01:19 33.12685 -112.58379 32945 ft 455 kts 105°
2026-05-07 01:20 33.10919 -112.51099 32941 ft 457 kts 105°
2026-05-07 01:20 33.09149 -112.43824 32938 ft 458 kts 107°
2026-05-07 01:21 33.07351 -112.36460 32939 ft 465 kts 107°
2026-05-07 01:21 33.05538 -112.29050 32941 ft 466 kts 107°
2026-05-07 01:22 33.03721 -112.21628 32938 ft 466 kts 107°
2026-05-07 01:22 33.01899 -112.14225 32934 ft 466 kts 107°
2026-05-07 01:23 33.00062 -112.06788 32931 ft 471 kts 108°
2026-05-07 01:23 32.98218 -111.99315 32930 ft 471 kts 109°
2026-05-07 01:24 32.96350 -111.91780 32921 ft 476 kts 109°
2026-05-07 01:24 32.94471 -111.84241 32929 ft 475 kts 109°
2026-05-07 01:25 32.92582 -111.76676 32937 ft 478 kts 110°
2026-05-07 01:25 32.90682 -111.69062 32926 ft 480 kts 109°
2026-05-07 01:26 32.88775 -111.61440 32926 ft 481 kts 110°
2026-05-07 01:26 32.86858 -111.53831 32927 ft 480 kts 110°
2026-05-07 01:27 32.84935 -111.46219 32929 ft 480 kts 110°
2026-05-07 01:27 32.83011 -111.38594 32952 ft 485 kts 111°
2026-05-07 01:28 32.81058 -111.30909 32947 ft 486 kts 111°
2026-05-07 01:28 32.79107 -111.23213 32958 ft 486 kts 111°
2026-05-07 01:29 32.77146 -111.15531 32957 ft 486 kts 111°
2026-05-07 01:29 32.75169 -111.07817 32959 ft 490 kts 111°
2026-05-07 01:30 32.73198 -111.00066 32953 ft 490 kts 112°
2026-05-07 01:30 32.71206 -110.92331 32946 ft 490 kts 112°
2026-05-07 01:31 32.69214 -110.84602 32946 ft 489 kts 112°
2026-05-07 01:31 32.67219 -110.76879 32954 ft 497 kts 114°
2026-05-07 01:32 32.65178 -110.69024 32948 ft 498 kts 114°
2026-05-07 01:32 32.63152 -110.61180 32952 ft 497 kts 114°
2026-05-07 01:33 32.61111 -110.53336 32957 ft 497 kts 114°
2026-05-07 01:33 32.59064 -110.45502 32954 ft 499 kts 114°
2026-05-07 01:34 32.56977 -110.37617 32950 ft 502 kts 114°
2026-05-07 01:34 32.54898 -110.29726 32954 ft 501 kts 114°
2026-05-07 01:35 32.52819 -110.21832 32960 ft 504 kts 115°
2026-05-07 01:35 32.50723 -110.13898 32957 ft 504 kts 115°
2026-05-07 01:36 32.48605 -110.05940 32951 ft 508 kts 116°
2026-05-07 01:36 32.46480 -109.97963 32956 ft 508 kts 116°
2026-05-07 01:37 32.44722 -109.91332 32947 ft 508 kts 116°
2026-05-07 01:37 32.42605 -109.83368 32947 ft 507 kts 116°
2026-05-07 01:38 32.40480 -109.75378 32944 ft 512 kts 116°
2026-05-07 01:38 32.37963 -109.66047 32925 ft 512 kts 116°
2026-05-07 01:39 32.36153 -109.59310 32921 ft 514 kts 117°
2026-05-07 01:39 32.33998 -109.51325 32929 ft 513 kts 117°
2026-05-07 01:40 32.31810 -109.43292 32945 ft 515 kts 117°
2026-05-07 01:40 32.29613 -109.35233 32927 ft 515 kts 117°
2026-05-07 01:41 32.27423 -109.27172 32935 ft 516 kts 115°
2026-05-07 01:41 32.26078 -109.18698 32949 ft 529 kts 106°
2026-05-07 01:42 32.25080 -109.10092 32924 ft 530 kts 105°
2026-05-07 01:42 32.24060 -109.01439 32926 ft 531 kts 106°
2026-05-07 01:43 32.23025 -108.92797 32910 ft 531 kts 105°
2026-05-07 01:43 32.21986 -108.84174 32932 ft 531 kts 105°
2026-05-07 01:44 32.20939 -108.75536 32935 ft 533 kts 105°
2026-05-07 01:44 32.20410 -108.71201 33061 ft 534 kts 105°
2026-05-07 01:44 32.19881 -108.66864 33056 ft 533 kts 105°
2026-05-07 01:45 32.18819 -108.58201 33040 ft 533 kts 106°
2026-05-07 01:45 32.17752 -108.49551 33010 ft 533 kts 106°
2026-05-07 01:46 32.16677 -108.40895 32959 ft 533 kts 105°
2026-05-07 01:46 32.15595 -108.32221 32927 ft 534 kts 105°
2026-05-07 01:47 32.14506 -108.23545 32936 ft 534 kts 106°
2026-05-07 01:47 32.13412 -108.14873 32934 ft 534 kts 106°
2026-05-07 01:48 32.12308 -108.06153 32933 ft 534 kts 106°
2026-05-07 01:48 32.11209 -107.97546 32929 ft 534 kts 106°
2026-05-07 01:49 32.10097 -107.88891 32924 ft 534 kts 106°
2026-05-07 01:49 32.08981 -107.80234 33014 ft 534 kts 106°
2026-05-07 01:50 32.07858 -107.71573 33025 ft 535 kts 106°
2026-05-07 01:50 32.06725 -107.62907 32994 ft 535 kts 105°
2026-05-07 01:51 32.05588 -107.54234 32962 ft 534 kts 106°
2026-05-07 01:51 32.04444 -107.45581 32927 ft 535 kts 106°
2026-05-07 01:52 32.03300 -107.36919 32895 ft 535 kts 106°
2026-05-07 01:52 32.02145 -107.28252 32881 ft 535 kts 106°
2026-05-07 01:53 32.00981 -107.19589 32887 ft 535 kts 106°
2026-05-07 01:53 31.99823 -107.10932 32901 ft 535 kts 106°
2026-05-07 01:54 31.98655 -107.02279 32914 ft 535 kts 107°
2026-05-07 01:54 31.97470 -106.93594 32911 ft 537 kts 107°
2026-05-07 01:55 31.96286 -106.84920 33018 ft 536 kts 107°
2026-05-07 01:55 31.95088 -106.76257 33055 ft 536 kts 107°
2026-05-07 01:56 31.93896 -106.67577 33057 ft 538 kts 107°
2026-05-07 01:56 31.92688 -106.58866 33045 ft 540 kts 107°
2026-05-07 01:57 31.91472 -106.50150 33008 ft 540 kts 107°
2026-05-07 01:57 31.90250 -106.41457 33026 ft 540 kts 107°
2026-05-07 01:58 31.89039 -106.32742 33028 ft 538 kts 107°
2026-05-07 01:58 31.87809 -106.24057 33012 ft 538 kts 108°
2026-05-07 01:59 31.86573 -106.15378 32968 ft 538 kts 107°
2026-05-07 01:59 31.85350 -106.06696 32896 ft 535 kts 108°
2026-05-07 02:00 31.84104 -105.98117 32897 ft 533 kts 108°
2026-05-07 02:00 31.82851 -105.89455 32877 ft 539 kts 108°
2026-05-07 02:01 31.81597 -105.80782 32850 ft 538 kts 108°
2026-05-07 02:01 31.80331 -105.72105 32857 ft 538 kts 108°
2026-05-07 02:02 31.79057 -105.63430 32871 ft 539 kts 108°
2026-05-07 02:02 31.77774 -105.54681 32851 ft 545 kts 108°
2026-05-07 02:03 31.76478 -105.45903 32863 ft 545 kts 108°
2026-05-07 02:03 31.75188 -105.37124 32861 ft 545 kts 108°
2026-05-07 02:04 31.73871 -105.28426 32838 ft 544 kts 108°
2026-05-07 02:04 31.72557 -105.19653 32864 ft 545 kts 108°
2026-05-07 02:05 31.71246 -105.10870 32866 ft 545 kts 108°
2026-05-07 02:05 31.69911 -105.02133 32876 ft 543 kts 109°
2026-05-07 02:06 31.68577 -104.93394 32876 ft 544 kts 108°
2026-05-07 02:06 31.67251 -104.84668 32882 ft 543 kts 109°
2026-05-07 02:07 31.65908 -104.75954 32892 ft 543 kts 109°
2026-05-07 02:07 31.63908 -104.62891 32880 ft 542 kts 109°
2026-05-07 02:08 31.62539 -104.54190 32882 ft 542 kts 109°
2026-05-07 02:08 31.61188 -104.45495 32883 ft 541 kts 109°
2026-05-07 02:09 31.59819 -104.36803 32884 ft 542 kts 109°
2026-05-07 02:09 31.58450 -104.28105 32881 ft 542 kts 109°
2026-05-07 02:10 31.57077 -104.19414 32884 ft 543 kts 109°
2026-05-07 02:10 31.55682 -104.10683 32865 ft 544 kts 109°
2026-05-07 02:11 31.54300 -104.01995 32868 ft 542 kts 109°
2026-05-07 02:11 31.52904 -103.93305 32866 ft 542 kts 109°
2026-05-07 02:12 31.51506 -103.84620 32867 ft 542 kts 109°
2026-05-07 02:12 31.50097 -103.75928 32897 ft 543 kts 109°
2026-05-07 02:13 31.48702 -103.67238 32933 ft 543 kts 109°
2026-05-07 02:13 31.47276 -103.58551 32963 ft 543 kts 109°
2026-05-07 02:14 31.45957 -103.49833 32974 ft 545 kts 107°
2026-05-07 02:14 31.44845 -103.40988 32963 ft 550 kts 107°
2026-05-07 02:15 31.43761 -103.32127 32932 ft 549 kts 107°
2026-05-07 02:15 31.42671 -103.23277 32896 ft 549 kts 107°
2026-05-07 02:16 31.41580 -103.14480 32865 ft 549 kts 107°
2026-05-07 02:16 31.40477 -103.05632 32840 ft 549 kts 107°
2026-05-07 02:17 31.39376 -102.96839 32846 ft 545 kts 107°
2026-05-07 02:17 31.38260 -102.88004 32848 ft 545 kts 107°
2026-05-07 02:18 31.37147 -102.79232 32847 ft 545 kts 107°
2026-05-07 02:18 31.36036 -102.70521 32840 ft 545 kts 107°
2026-05-07 02:19 31.34913 -102.61763 32853 ft 544 kts 107°
2026-05-07 02:19 31.33784 -102.53006 32854 ft 544 kts 107°
2026-05-07 02:20 31.32650 -102.44254 32856 ft 544 kts 107°
2026-05-07 02:20 31.31515 -102.35533 32863 ft 541 kts 107°
2026-05-07 02:21 31.30377 -102.26847 32872 ft 540 kts 107°
2026-05-07 02:21 31.29233 -102.18167 32884 ft 540 kts 108°
2026-05-07 02:22 31.28081 -102.09491 32882 ft 540 kts 108°
2026-05-07 02:22 31.27122 -102.02283 32887 ft 538 kts 107°
2026-05-07 02:23 31.25966 -101.93623 32901 ft 539 kts 107°
2026-05-07 02:23 31.24805 -101.84975 32882 ft 539 kts 107°
2026-05-07 02:24 31.23641 -101.76372 32919 ft 536 kts 108°
2026-05-07 02:24 31.22471 -101.67772 32920 ft 536 kts 108°
2026-05-07 02:25 31.21301 -101.59156 32934 ft 537 kts 107°
2026-05-07 02:25 31.20116 -101.50540 32936 ft 537 kts 107°
2026-05-07 02:26 31.18929 -101.41931 32946 ft 537 kts 107°
2026-05-07 02:26 31.17737 -101.33315 32940 ft 537 kts 108°
2026-05-07 02:27 31.16531 -101.24745 32957 ft 534 kts 108°
2026-05-07 02:27 31.15324 -101.16185 32956 ft 534 kts 108°
2026-05-07 02:28 31.14116 -101.07629 32954 ft 534 kts 108°
2026-05-07 02:28 31.12906 -100.99080 32960 ft 534 kts 108°
2026-05-07 02:29 31.11689 -100.90532 32960 ft 534 kts 108°
2026-05-07 02:29 31.10466 -100.81990 32962 ft 534 kts 108°
2026-05-07 02:30 31.09240 -100.73455 32976 ft 534 kts 108°
2026-05-07 02:30 31.08014 -100.64970 32954 ft 533 kts 108°
2026-05-07 02:31 31.06789 -100.56511 32980 ft 527 kts 108°
2026-05-07 02:31 31.05560 -100.48087 32983 ft 527 kts 108°
2026-05-07 02:32 31.04325 -100.39659 32980 ft 527 kts 108°
2026-05-07 02:32 31.03085 -100.31239 32976 ft 527 kts 108°
2026-05-07 02:33 31.01840 -100.22819 32971 ft 527 kts 108°
2026-05-07 02:33 31.00583 -100.14371 32966 ft 531 kts 108°
2026-05-07 02:34 30.99322 -100.05898 32967 ft 530 kts 108°
2026-05-07 02:34 30.98053 -99.97433 32972 ft 530 kts 108°
2026-05-07 02:35 30.96779 -99.88976 32971 ft 530 kts 108°
2026-05-07 02:35 30.95499 -99.80514 32968 ft 534 kts 108°
2026-05-07 02:36 30.94202 -99.71977 32973 ft 535 kts 108°
2026-05-07 02:36 30.92900 -99.63451 32969 ft 535 kts 108°
2026-05-07 02:37 30.91593 -99.54929 32970 ft 534 kts 108°
2026-05-07 02:37 30.90284 -99.46406 32755 ft 537 kts 108°
2026-05-07 02:38 30.89621 -99.42128 32348 ft 534 kts 107°
2026-05-07 02:38 30.88961 -99.37870 31564 ft 535 kts 107°
2026-05-07 02:38 30.88305 -99.33639 30866 ft 527 kts 107°
2026-05-07 02:38 30.87660 -99.29471 30130 ft 520 kts 107°
2026-05-07 02:39 30.87020 -99.25355 29411 ft 511 kts 107°
2026-05-07 02:39 30.86393 -99.21326 28749 ft 502 kts 107°
2026-05-07 02:39 30.85774 -99.17365 28110 ft 493 kts 107°
2026-05-07 02:39 30.85173 -99.13514 27442 ft 486 kts 107°
2026-05-07 02:40 30.84568 -99.09679 26815 ft 479 kts 107°
2026-05-07 02:40 30.83971 -99.05894 26209 ft 473 kts 107°
2026-05-07 02:40 30.83376 -99.02148 25569 ft 470 kts 106°
2026-05-07 02:40 30.82784 -98.98420 24977 ft 467 kts 106°
2026-05-07 02:41 30.82195 -98.94713 24355 ft 465 kts 105°
2026-05-07 02:41 30.81611 -98.91022 23754 ft 462 kts 105°
2026-05-07 02:41 30.81030 -98.87359 23114 ft 458 kts 105°
2026-05-07 02:41 30.80463 -98.83751 22552 ft 451 kts 105°
2026-05-07 02:42 30.79892 -98.80181 21962 ft 446 kts 105°
2026-05-07 02:42 30.79339 -98.76654 21342 ft 443 kts 103°
2026-05-07 02:42 30.78959 -98.73108 20788 ft 439 kts 100°
2026-05-07 02:42 30.78635 -98.69599 20185 ft 435 kts 100°
2026-05-07 02:43 30.78303 -98.66126 19623 ft 429 kts 101°
2026-05-07 02:43 30.77958 -98.62696 19068 ft 424 kts 101°
2026-05-07 02:43 30.77610 -98.59311 18501 ft 420 kts 101°
2026-05-07 02:43 30.77260 -98.55956 17929 ft 415 kts 101°
2026-05-07 02:44 30.76914 -98.52648 17411 ft 410 kts 101°
2026-05-07 02:44 30.76567 -98.49368 16844 ft 408 kts 101°
2026-05-07 02:44 30.76199 -98.46112 16316 ft 405 kts 101°
2026-05-07 02:44 30.75748 -98.42917 15977 ft 395 kts 110°
2026-05-07 02:45 30.74788 -98.39948 15703 ft 390 kts 120°
2026-05-07 02:45 30.73594 -98.37128 15556 ft 390 kts 122°
2026-05-07 02:45 30.72396 -98.34295 15371 ft 391 kts 121°
2026-05-07 02:45 30.71235 -98.31448 15172 ft 390 kts 120°
2026-05-07 02:46 30.70097 -98.28600 14974 ft 388 kts 120°
2026-05-07 02:46 30.68991 -98.25797 14757 ft 373 kts 120°
2026-05-07 02:46 30.67935 -98.23113 14613 ft 358 kts 120°
2026-05-07 02:46 30.66914 -98.20528 14424 ft 347 kts 120°
2026-05-07 02:47 30.65915 -98.18006 14266 ft 343 kts 120°
2026-05-07 02:47 30.64909 -98.15485 14072 ft 346 kts 120°
2026-05-07 02:47 30.63893 -98.12935 13727 ft 349 kts 120°
2026-05-07 02:47 30.62883 -98.10386 13400 ft 346 kts 120°
2026-05-07 02:48 30.61879 -98.07850 13006 ft 345 kts 120°
2026-05-07 02:48 30.60884 -98.05341 12623 ft 341 kts 119°
2026-05-07 02:48 30.59895 -98.02849 12251 ft 337 kts 119°
2026-05-07 02:48 30.58920 -98.00395 11889 ft 333 kts 119°
2026-05-07 02:49 30.57952 -97.97967 11509 ft 330 kts 119°
2026-05-07 02:49 30.56994 -97.95563 11203 ft 325 kts 118°
2026-05-07 02:49 30.55797 -97.93417 10966 ft 313 kts 140°
2026-05-07 02:49 30.54038 -97.92034 10765 ft 303 kts 159°
2026-05-07 02:50 30.52133 -97.91000 10593 ft 304 kts 161°
2026-05-07 02:50 30.50202 -97.89982 10411 ft 304 kts 161°
2026-05-07 02:50 30.48292 -97.88929 10238 ft 304 kts 160°
2026-05-07 02:50 30.46383 -97.87849 9974 ft 306 kts 159°
2026-05-07 02:51 30.44484 -97.86750 9724 ft 303 kts 159°
2026-05-07 02:51 30.42623 -97.85695 9440 ft 301 kts 159°
2026-05-07 02:51 30.40749 -97.84630 9102 ft 299 kts 158°
2026-05-07 02:51 30.38878 -97.83598 8824 ft 297 kts 159°
2026-05-07 02:52 30.37008 -97.82557 8486 ft 298 kts 158°
2026-05-07 02:52 30.35157 -97.81508 8184 ft 295 kts 157°
2026-05-07 02:52 30.33323 -97.80467 7830 ft 293 kts 157°
2026-05-07 02:52 30.31500 -97.79435 7533 ft 289 kts 157°
2026-05-07 02:53 30.29704 -97.78445 7235 ft 283 kts 156°
2026-05-07 02:53 30.27935 -97.77472 6879 ft 279 kts 163°
2026-05-07 02:53 30.26065 -97.77077 6570 ft 270 kts 179°
2026-05-07 02:53 30.24196 -97.77044 6224 ft 267 kts 183°
2026-05-07 02:54 30.22340 -97.77061 5851 ft 267 kts 182°
2026-05-07 02:54 30.20483 -97.77039 5536 ft 265 kts 181°
2026-05-07 02:54 30.18646 -97.77006 5260 ft 261 kts 181°
2026-05-07 02:54 30.16858 -97.76954 5112 ft 253 kts 180°
2026-05-07 02:55 30.15120 -97.76889 4960 ft 245 kts 179°
2026-05-07 02:55 30.13458 -97.76819 4937 ft 234 kts 179°
2026-05-07 02:55 30.11854 -97.76742 4934 ft 228 kts 174°
2026-05-07 02:55 30.10360 -97.76164 5071 ft 232 kts 154°
2026-05-07 02:56 30.08812 -97.75629 5072 ft 234 kts 178°
2026-05-07 02:56 30.07185 -97.75578 5080 ft 235 kts 180°
2026-05-07 02:56 30.05490 -97.75521 4394 ft 255 kts 180°
2026-05-07 02:56 30.03672 -97.75455 3855 ft 263 kts 173°
2026-05-07 02:57 30.01974 -97.74719 3431 ft 263 kts 141°
2026-05-07 02:57 30.00855 -97.73131 3189 ft 253 kts 112°
2026-05-07 02:57 30.00597 -97.71193 2916 ft 243 kts 78°
2026-05-07 02:57 30.01253 -97.69472 2650 ft 233 kts 47°
2026-05-07 02:58 30.02357 -97.68155 2485 ft 222 kts 43°
2026-05-07 02:58 30.03464 -97.67086 2590 ft 199 kts 22°
2026-05-07 02:58 30.04742 -97.67096 2497 ft 178 kts 345°
2026-05-07 02:58 30.05903 -97.67422 2415 ft 170 kts 355°
2026-05-07 02:59 30.07079 -97.67574 2200 ft 168 kts 358°
2026-05-07 02:59 30.08224 -97.67596 2088 ft 163 kts
2026-05-07 02:59 30.09338 -97.67618 2026 ft 152 kts 360°
2026-05-07 02:59 30.10369 -97.67683 1934 ft 144 kts
2026-05-07 03:00 30.11306 -97.67679 1808 ft 125 kts
2026-05-07 03:00 30.12141 -97.67708 1628 ft 117 kts
2026-05-07 03:00 30.12957 -97.67723 1463 ft 117 kts
2026-05-07 03:00 30.13773 -97.67748 1302 ft 118 kts
2026-05-07 03:01 30.14586 -97.67759 1236 ft 117 kts
2026-05-07 03:01 30.15407 -97.67775 1094 ft 122 kts 359°
2026-05-07 03:01 30.16249 -97.67803 931 ft 118 kts 359°
2026-05-07 03:01 30.17061 -97.67831 753 ft 116 kts
2026-05-07 03:02 30.17878 -97.67849 600 ft 119 kts
2026-05-07 03:02 30.18657 -97.67867 525 ft 99 kts
2026-05-07 03:02 30.19200 -97.67881 526 ft 57 kts 359°
2026-05-07 03:02 30.19384 -97.67840 526 ft 17 kts 71°
2026-05-07 03:03 30.19395 -97.67717 525 ft 16 kts 90°
2026-05-07 03:03 30.19397 -97.67566 525 ft 21 kts 88°
2026-05-07 03:03 30.19399 -97.67385 525 ft 19 kts 89°
2026-05-07 03:03 30.19470 -97.67320 525 ft 16 kts 360°
2026-05-07 03:04 30.19597 -97.67324 525 ft 20 kts 358°
2026-05-07 03:04 30.19751 -97.67328 525 ft 24 kts 358°
2026-05-07 03:04 30.19927 -97.67334 525 ft 27 kts 359°
2026-05-07 03:04 30.20069 -97.67330 525 ft 13 kts 32°
2026-05-07 03:05 30.20090 -97.67225 525 ft 16 kts 89°
2026-05-07 03:05 30.20092 -97.67076 525 ft 20 kts 88°
2026-05-07 03:05 30.20108 -97.66981 525 ft 7 kts 24°
2026-05-07 03:05 30.20148 -97.66959 525 ft 2 kts 23°
2026-05-07 03:06 30.20162 -97.66953 525 ft 2 kts 23°
2026-05-07 03:06 30.20170 -97.66949 525 ft 0 kts 23°
2026-05-07 03:06 30.20172 -97.66948 525 ft 1 kts 23°
2026-05-07 03:06 30.20174 -97.66947 525 ft 0 kts 23°